owner,sensor,date,latitude,longitude,air_pressure(mBar),qcFlag 
TABS,ioos:station:wmo:42047:1,2010-09-01T00:00:00Z,27.8966,-93.5973,1013.99,11111222 
TABS,ioos:station:wmo:42047:1,2010-09-01T00:30:00Z,27.8966,-93.5973,1013.97,11111222 
TABS,ioos:station:wmo:42047:1,2010-09-01T01:00:00Z,27.8966,-93.5973,1013.9,11111222 
TABS,ioos:station:wmo:42047:1,2010-09-01T01:30:00Z,27.8966,-93.5973,1013.87,11111222 
TABS,ioos:station:wmo:42047:1,2010-09-01T02:00:00Z,27.8966,-93.5973,1014.32,11111222 
TABS,ioos:station:wmo:42047:1,2010-09-01T02:30:00Z,27.8966,-93.5973,1014.26,11111222 
TABS,ioos:station:wmo:42047:1,2010-09-01T03:00:00Z,27.8966,-93.5973,1014.47,11111222 
TABS,ioos:station:wmo:42047:1,2010-09-01T03:30:00Z,27.8966,-93.5973,1014.27,11111222 
TABS,ioos:station:wmo:42047:1,2010-09-01T04:00:00Z,27.8966,-93.5973,1014.03,11111222 
TABS,ioos:station:wmo:42047:1,2010-09-01T04:30:00Z,27.8966,-93.5973,1013.95,11111222 
TABS,ioos:station:wmo:42047:1,2010-09-01T05:00:00Z,27.8966,-93.5973,1013.55,11111222 
TABS,ioos:station:wmo:42047:1,2010-09-01T05:30:00Z,27.8966,-93.5973,1013.45,11111222 
TABS,ioos:station:wmo:42047:1,2010-09-01T06:00:00Z,27.8966,-93.5973,1013.24,11111222 
TABS,ioos:station:wmo:42047:1,2010-09-01T06:30:00Z,27.8966,-93.5973,1013.18,11111222 
TABS,ioos:station:wmo:42047:1,2010-09-01T07:00:00Z,27.8966,-93.5973,1012.92,11111222 
TABS,ioos:station:wmo:42047:1,2010-09-01T07:30:00Z,27.8966,-93.5973,1012.73,11111222 
TABS,ioos:station:wmo:42047:1,2010-09-01T08:00:00Z,27.8966,-93.5973,1012.69,11111222 
TABS,ioos:station:wmo:42047:1,2010-09-01T08:30:00Z,27.8966,-93.5973,1012.75,11111222 
TABS,ioos:station:wmo:42047:1,2010-09-01T09:00:00Z,27.8966,-93.5973,1012.77,11111222 
TABS,ioos:station:wmo:42047:1,2010-09-01T09:30:00Z,27.8966,-93.5973,1012.6,11111222 
TABS,ioos:station:wmo:42047:1,2010-09-01T10:00:00Z,27.8966,-93.5973,1012.65,11111222 
TABS,ioos:station:wmo:42047:1,2010-09-01T10:30:00Z,27.8966,-93.5973,1012.65,11111222 
TABS,ioos:station:wmo:42047:1,2010-09-01T11:00:00Z,27.8966,-93.5973,1012.57,11111222 
TABS,ioos:station:wmo:42047:1,2010-09-01T11:30:00Z,27.8966,-93.5973,1012.89,11111222 
TABS,ioos:station:wmo:42047:1,2010-09-01T12:00:00Z,27.8966,-93.5973,1012.98,11111222 
TABS,ioos:station:wmo:42047:1,2010-09-01T12:30:00Z,27.8966,-93.5973,1013.21,11111222 
TABS,ioos:station:wmo:42047:1,2010-09-01T13:00:00Z,27.8966,-93.5973,1013.49,11111222 
TABS,ioos:station:wmo:42047:1,2010-09-01T13:30:00Z,27.8966,-93.5973,1013.29,11111222 
TABS,ioos:station:wmo:42047:1,2010-09-01T14:00:00Z,27.8966,-93.5973,1013.39,11111222 
TABS,ioos:station:wmo:42047:1,2010-09-01T14:30:00Z,27.8966,-93.5973,1013.47,11111222 
TABS,ioos:station:wmo:42047:1,2010-09-01T15:00:00Z,27.8966,-93.5973,1013.73,11111222 
TABS,ioos:station:wmo:42047:1,2010-09-01T15:30:00Z,27.8966,-93.5973,1013.8,11111222 
TABS,ioos:station:wmo:42047:1,2010-09-01T16:00:00Z,27.8966,-93.5973,1013.66,11111222 
TABS,ioos:station:wmo:42047:1,2010-09-01T16:30:00Z,27.8966,-93.5973,1013.47,11111222 
TABS,ioos:station:wmo:42047:1,2010-09-01T17:00:00Z,27.8966,-93.5973,1013.34,11111222 
TABS,ioos:station:wmo:42047:1,2010-09-01T17:30:00Z,27.8966,-93.5973,1013.1,11111222 
TABS,ioos:station:wmo:42047:1,2010-09-01T18:00:00Z,27.8966,-93.5973,1012.82,11111222 
TABS,ioos:station:wmo:42047:1,2010-09-01T18:30:00Z,27.8966,-93.5973,1012.67,11111222 
TABS,ioos:station:wmo:42047:1,2010-09-01T19:00:00Z,27.8966,-93.5973,1012.7,11111222 
TABS,ioos:station:wmo:42047:1,2010-09-01T19:30:00Z,27.8966,-93.5973,1012.35,11111222 
TABS,ioos:station:wmo:42047:1,2010-09-01T20:00:00Z,27.8966,-93.5973,1011.9,11111222 
TABS,ioos:station:wmo:42047:1,2010-09-01T20:30:00Z,27.8966,-93.5973,1011.47,11111222 
TABS,ioos:station:wmo:42047:1,2010-09-01T21:00:00Z,27.8966,-93.5973,1011.34,11111222 
TABS,ioos:station:wmo:42047:1,2010-09-01T21:30:00Z,27.8966,-93.5973,1011.23,11111222 
TABS,ioos:station:wmo:42047:1,2010-09-01T22:00:00Z,27.8966,-93.5973,1011.03,11111222 
TABS,ioos:station:wmo:42047:1,2010-09-01T22:30:00Z,27.8966,-93.5973,1011.11,11111222 
TABS,ioos:station:wmo:42047:1,2010-09-01T23:00:00Z,27.8966,-93.5973,1010.81,11111222 
TABS,ioos:station:wmo:42047:1,2010-09-01T23:30:00Z,27.8966,-93.5973,1011.1,11111222 
TABS,ioos:station:wmo:42047:1,2010-09-02T00:00:00Z,27.8966,-93.5973,1010.87,11111222 
TABS,ioos:station:wmo:42047:1,2010-09-02T00:30:00Z,27.8966,-93.5973,1010.74,11111222 
TABS,ioos:station:wmo:42047:1,2010-09-02T01:00:00Z,27.8966,-93.5973,1010.62,11111222 
TABS,ioos:station:wmo:42047:1,2010-09-02T01:30:00Z,27.8966,-93.5973,1010.86,11111222 
TABS,ioos:station:wmo:42047:1,2010-09-02T02:00:00Z,27.8966,-93.5973,1011.14,11111222 
TABS,ioos:station:wmo:42047:1,2010-09-02T02:30:00Z,27.8966,-93.5973,1011.52,11111222 
TABS,ioos:station:wmo:42047:1,2010-09-02T03:00:00Z,27.8966,-93.5973,1011.72,11111222 
TABS,ioos:station:wmo:42047:1,2010-09-02T03:30:00Z,27.8966,-93.5973,1011.64,11111222 
TABS,ioos:station:wmo:42047:1,2010-09-02T04:00:00Z,27.8966,-93.5973,1011.63,11111222 
TABS,ioos:station:wmo:42047:1,2010-09-02T04:30:00Z,27.8966,-93.5973,1011.61,11111222 
TABS,ioos:station:wmo:42047:1,2010-09-02T05:00:00Z,27.8966,-93.5973,1011.54,11111222 
TABS,ioos:station:wmo:42047:1,2010-09-02T05:30:00Z,27.8966,-93.5973,1011.49,11111222 
TABS,ioos:station:wmo:42047:1,2010-09-02T06:00:00Z,27.8966,-93.5973,1011.27,11111222 
TABS,ioos:station:wmo:42047:1,2010-09-02T06:30:00Z,27.8966,-93.5973,1011.18,11111222 
TABS,ioos:station:wmo:42047:1,2010-09-02T07:00:00Z,27.8966,-93.5973,1011.04,11111222 
TABS,ioos:station:wmo:42047:1,2010-09-02T07:30:00Z,27.8966,-93.5973,1010.79,11111222 
TABS,ioos:station:wmo:42047:1,2010-09-02T08:00:00Z,27.8966,-93.5973,1010.61,11111222 
TABS,ioos:station:wmo:42047:1,2010-09-02T08:30:00Z,27.8966,-93.5973,1010.24,11111222 
TABS,ioos:station:wmo:42047:1,2010-09-02T09:00:00Z,27.8966,-93.5973,1010.26,11111222 
TABS,ioos:station:wmo:42047:1,2010-09-02T09:30:00Z,27.8966,-93.5973,1010.24,11111222 
TABS,ioos:station:wmo:42047:1,2010-09-02T10:00:00Z,27.8966,-93.5973,1010.58,11111222 
TABS,ioos:station:wmo:42047:1,2010-09-02T10:30:00Z,27.8966,-93.5973,1010.73,11111222 
TABS,ioos:station:wmo:42047:1,2010-09-02T11:00:00Z,27.8966,-93.5973,1010.79,11111222 
TABS,ioos:station:wmo:42047:1,2010-09-02T11:30:00Z,27.8966,-93.5973,1011.01,11111222 
TABS,ioos:station:wmo:42047:1,2010-09-02T12:00:00Z,27.8966,-93.5973,1011.34,11111222 
TABS,ioos:station:wmo:42047:1,2010-09-02T12:30:00Z,27.8966,-93.5973,1011.52,11111222 
TABS,ioos:station:wmo:42047:1,2010-09-02T13:00:00Z,27.8966,-93.5973,1011.77,11111222 
TABS,ioos:station:wmo:42047:1,2010-09-02T13:30:00Z,27.8966,-93.5973,1011.93,11111222 
TABS,ioos:station:wmo:42047:1,2010-09-02T14:00:00Z,27.8966,-93.5973,1012.24,11111222 
TABS,ioos:station:wmo:42047:1,2010-09-02T14:30:00Z,27.8966,-93.5973,1012.43,11111222 
TABS,ioos:station:wmo:42047:1,2010-09-02T15:00:00Z,27.8966,-93.5973,1012.7,11111222 
TABS,ioos:station:wmo:42047:1,2010-09-02T15:30:00Z,27.8966,-93.5973,1012.93,11111222 
TABS,ioos:station:wmo:42047:1,2010-09-02T16:00:00Z,27.8966,-93.5973,1013.15,11111222 
TABS,ioos:station:wmo:42047:1,2010-09-02T16:30:00Z,27.8966,-93.5973,1013.29,11111222 
TABS,ioos:station:wmo:42047:1,2010-09-02T17:00:00Z,27.8966,-93.5973,1013.15,11111222 
TABS,ioos:station:wmo:42047:1,2010-09-02T17:30:00Z,27.8966,-93.5973,1013.19,11111222 
TABS,ioos:station:wmo:42047:1,2010-09-02T18:00:00Z,27.8966,-93.5973,1012.87,11111222 
TABS,ioos:station:wmo:42047:1,2010-09-02T18:30:00Z,27.8966,-93.5973,1012.66,11111222 
TABS,ioos:station:wmo:42047:1,2010-09-02T19:00:00Z,27.8966,-93.5973,1012.54,11111222 
TABS,ioos:station:wmo:42047:1,2010-09-02T19:30:00Z,27.8966,-93.5973,1012.23,11111222 
TABS,ioos:station:wmo:42047:1,2010-09-02T20:00:00Z,27.8966,-93.5973,1012.02,11111222 
TABS,ioos:station:wmo:42047:1,2010-09-02T20:30:00Z,27.8966,-93.5973,1011.76,11111222 
TABS,ioos:station:wmo:42047:1,2010-09-02T21:00:00Z,27.8966,-93.5973,1011.97,11111222 
TABS,ioos:station:wmo:42047:1,2010-09-02T21:30:00Z,27.8966,-93.5973,1011.86,11111222 
TABS,ioos:station:wmo:42047:1,2010-09-02T22:00:00Z,27.8966,-93.5973,1011.8,11111222 
TABS,ioos:station:wmo:42047:1,2010-09-02T22:30:00Z,27.8966,-93.5973,1011.83,11111222 
TABS,ioos:station:wmo:42047:1,2010-09-02T23:00:00Z,27.8966,-93.5973,1011.95,11111222 
TABS,ioos:station:wmo:42047:1,2010-09-02T23:30:00Z,27.8966,-93.5973,1011.93,11111222 
TABS,ioos:station:wmo:42047:1,2010-09-03T00:00:00Z,27.8966,-93.5973,1011.94,11111222 
TABS,ioos:station:wmo:42047:1,2010-09-03T00:30:00Z,27.8966,-93.5973,1012.04,11111222 
TABS,ioos:station:wmo:42047:1,2010-09-03T01:00:00Z,27.8966,-93.5973,1012.59,11111222 
TABS,ioos:station:wmo:42047:1,2010-09-03T01:30:00Z,27.8966,-93.5973,1012.64,11111222 
TABS,ioos:station:wmo:42047:1,2010-09-03T02:00:00Z,27.8966,-93.5973,1012.87,11111222 
TABS,ioos:station:wmo:42047:1,2010-09-03T02:30:00Z,27.8966,-93.5973,1013.01,11111222 
TABS,ioos:station:wmo:42047:1,2010-09-03T03:00:00Z,27.8966,-93.5973,1013.24,11111222 
TABS,ioos:station:wmo:42047:1,2010-09-03T03:30:00Z,27.8966,-93.5973,1012.86,11111222 
TABS,ioos:station:wmo:42047:1,2010-09-03T04:00:00Z,27.8966,-93.5973,1012.98,11111222 
TABS,ioos:station:wmo:42047:1,2010-09-03T04:30:00Z,27.8966,-93.5973,1012.91,11111222 
TABS,ioos:station:wmo:42047:1,2010-09-03T05:00:00Z,27.8966,-93.5973,1013.3,11111222 
TABS,ioos:station:wmo:42047:1,2010-09-03T05:30:00Z,27.8966,-93.5973,1013.58,11111222 
TABS,ioos:station:wmo:42047:1,2010-09-03T06:00:00Z,27.8966,-93.5973,1013.52,11111222 
TABS,ioos:station:wmo:42047:1,2010-09-03T06:30:00Z,27.8966,-93.5973,1013.6,11111222 
TABS,ioos:station:wmo:42047:1,2010-09-03T07:00:00Z,27.8966,-93.5973,1013.14,11111222 
TABS,ioos:station:wmo:42047:1,2010-09-03T07:30:00Z,27.8966,-93.5973,1013.4,11111222 
TABS,ioos:station:wmo:42047:1,2010-09-03T08:00:00Z,27.8966,-93.5973,1013.71,11111222 
TABS,ioos:station:wmo:42047:1,2010-09-03T08:30:00Z,27.8966,-93.5973,1013.65,11111222 
TABS,ioos:station:wmo:42047:1,2010-09-03T09:00:00Z,27.8966,-93.5973,1013.44,11111222 
TABS,ioos:station:wmo:42047:1,2010-09-03T09:30:00Z,27.8966,-93.5973,1013.52,11111222 
TABS,ioos:station:wmo:42047:1,2010-09-03T10:00:00Z,27.8966,-93.5973,1013.46,11111222 
TABS,ioos:station:wmo:42047:1,2010-09-03T10:30:00Z,27.8966,-93.5973,1013.46,11111222 
TABS,ioos:station:wmo:42047:1,2010-09-03T11:00:00Z,27.8966,-93.5973,1013.4,11111222 
TABS,ioos:station:wmo:42047:1,2010-09-03T11:30:00Z,27.8966,-93.5973,1013.78,11111222 
TABS,ioos:station:wmo:42047:1,2010-09-03T12:00:00Z,27.8966,-93.5973,1014.03,11111222 
TABS,ioos:station:wmo:42047:1,2010-09-03T12:30:00Z,27.8966,-93.5973,1014.34,11111222 
TABS,ioos:station:wmo:42047:1,2010-09-03T13:00:00Z,27.8966,-93.5973,1014.78,11111222 
TABS,ioos:station:wmo:42047:1,2010-09-03T13:30:00Z,27.8966,-93.5973,1014.93,11111222 
TABS,ioos:station:wmo:42047:1,2010-09-03T14:00:00Z,27.8966,-93.5973,1015.04,11111222 
TABS,ioos:station:wmo:42047:1,2010-09-03T14:30:00Z,27.8966,-93.5973,1015.12,11111222 
TABS,ioos:station:wmo:42047:1,2010-09-03T15:00:00Z,27.8966,-93.5973,1015.43,11111222 
TABS,ioos:station:wmo:42047:1,2010-09-03T15:30:00Z,27.8966,-93.5973,1015.74,11111222 
TABS,ioos:station:wmo:42047:1,2010-09-03T16:00:00Z,27.8966,-93.5973,1015.68,11111222 
TABS,ioos:station:wmo:42047:1,2010-09-03T16:30:00Z,27.8966,-93.5973,1016.04,11111222 
TABS,ioos:station:wmo:42047:1,2010-09-03T17:00:00Z,27.8966,-93.5973,1016.01,11111222 
TABS,ioos:station:wmo:42047:1,2010-09-03T17:30:00Z,27.8966,-93.5973,1015.86,11111222 
TABS,ioos:station:wmo:42047:1,2010-09-03T18:00:00Z,27.8966,-93.5973,1015.79,11111222 
TABS,ioos:station:wmo:42047:1,2010-09-03T18:30:00Z,27.8966,-93.5973,1015.23,11111222 
TABS,ioos:station:wmo:42047:1,2010-09-03T19:00:00Z,27.8966,-93.5973,1014.88,11111222 
TABS,ioos:station:wmo:42047:1,2010-09-03T19:30:00Z,27.8966,-93.5973,1014.21,11111222 
TABS,ioos:station:wmo:42047:1,2010-09-03T20:00:00Z,27.8966,-93.5973,1014.0,11111222 
TABS,ioos:station:wmo:42047:1,2010-09-03T20:30:00Z,27.8966,-93.5973,1013.72,11111222 
TABS,ioos:station:wmo:42047:1,2010-09-03T21:00:00Z,27.8966,-93.5973,1013.35,11111222 
TABS,ioos:station:wmo:42047:1,2010-09-03T21:30:00Z,27.8966,-93.5973,1013.1,11111222 
TABS,ioos:station:wmo:42047:1,2010-09-03T22:00:00Z,27.8966,-93.5973,1013.43,11111222 
TABS,ioos:station:wmo:42047:1,2010-09-03T22:30:00Z,27.8966,-93.5973,1013.72,11111222 
TABS,ioos:station:wmo:42047:1,2010-09-03T23:00:00Z,27.8966,-93.5973,1013.73,11111222 
TABS,ioos:station:wmo:42047:1,2010-09-03T23:30:00Z,27.8966,-93.5973,1014.03,11111222 
TABS,ioos:station:wmo:42047:1,2010-09-04T00:00:00Z,27.8966,-93.5973,1014.13,11111222 
TABS,ioos:station:wmo:42047:1,2010-09-04T00:30:00Z,27.8966,-93.5973,1014.16,11111222 
TABS,ioos:station:wmo:42047:1,2010-09-04T01:00:00Z,27.8966,-93.5973,1014.43,11111222 
TABS,ioos:station:wmo:42047:1,2010-09-04T01:30:00Z,27.8966,-93.5973,1014.82,11111222 
TABS,ioos:station:wmo:42047:1,2010-09-04T02:00:00Z,27.8966,-93.5973,1015.05,11111222 
TABS,ioos:station:wmo:42047:1,2010-09-04T02:30:00Z,27.8966,-93.5973,1015.49,11111222 
TABS,ioos:station:wmo:42047:1,2010-09-04T03:00:00Z,27.8966,-93.5973,1015.87,11111222 
TABS,ioos:station:wmo:42047:1,2010-09-04T03:30:00Z,27.8966,-93.5973,1016.04,11111222 
TABS,ioos:station:wmo:42047:1,2010-09-04T04:00:00Z,27.8966,-93.5973,1015.8,11111222 
TABS,ioos:station:wmo:42047:1,2010-09-04T04:30:00Z,27.8966,-93.5973,1015.65,11111222 
TABS,ioos:station:wmo:42047:1,2010-09-04T05:00:00Z,27.8966,-93.5973,1015.55,11111222 
TABS,ioos:station:wmo:42047:1,2010-09-04T05:30:00Z,27.8966,-93.5973,1015.47,11111222 
TABS,ioos:station:wmo:42047:1,2010-09-04T06:00:00Z,27.8966,-93.5973,1015.43,11111222 
TABS,ioos:station:wmo:42047:1,2010-09-04T06:30:00Z,27.8966,-93.5973,1015.35,11111222 
TABS,ioos:station:wmo:42047:1,2010-09-04T07:00:00Z,27.8966,-93.5973,1015.15,11111222 
TABS,ioos:station:wmo:42047:1,2010-09-04T07:30:00Z,27.8966,-93.5973,1015.17,11111222 
TABS,ioos:station:wmo:42047:1,2010-09-04T08:00:00Z,27.8966,-93.5973,1015.09,11111222 
TABS,ioos:station:wmo:42047:1,2010-09-04T08:30:00Z,27.8966,-93.5973,1014.82,11111222 
TABS,ioos:station:wmo:42047:1,2010-09-04T09:00:00Z,27.8966,-93.5973,1014.57,11111222 
TABS,ioos:station:wmo:42047:1,2010-09-04T09:30:00Z,27.8966,-93.5973,1014.49,11111222 
TABS,ioos:station:wmo:42047:1,2010-09-04T10:00:00Z,27.8966,-93.5973,1014.37,11111222 
TABS,ioos:station:wmo:42047:1,2010-09-04T10:30:00Z,27.8966,-93.5973,1014.46,11111222 
TABS,ioos:station:wmo:42047:1,2010-09-04T11:00:00Z,27.8966,-93.5973,1014.64,11111222 
TABS,ioos:station:wmo:42047:1,2010-09-04T11:30:00Z,27.8966,-93.5973,1014.67,11111222 
TABS,ioos:station:wmo:42047:1,2010-09-04T12:00:00Z,27.8966,-93.5973,1014.98,11111222 
TABS,ioos:station:wmo:42047:1,2010-09-04T12:30:00Z,27.8966,-93.5973,1014.92,11111222 
TABS,ioos:station:wmo:42047:1,2010-09-04T13:00:00Z,27.8966,-93.5973,1015.04,11111222 
TABS,ioos:station:wmo:42047:1,2010-09-04T13:30:00Z,27.8966,-93.5973,1015.19,11111222 
TABS,ioos:station:wmo:42047:1,2010-09-04T14:00:00Z,27.8966,-93.5973,1015.29,11111222 
TABS,ioos:station:wmo:42047:1,2010-09-04T14:30:00Z,27.8966,-93.5973,1015.33,11111222 
TABS,ioos:station:wmo:42047:1,2010-09-04T15:00:00Z,27.8966,-93.5973,1015.52,11111222 
TABS,ioos:station:wmo:42047:1,2010-09-04T15:30:00Z,27.8966,-93.5973,1015.55,11111222 
TABS,ioos:station:wmo:42047:1,2010-09-04T16:00:00Z,27.8966,-93.5973,1015.45,11111222 
TABS,ioos:station:wmo:42047:1,2010-09-04T16:30:00Z,27.8966,-93.5973,1015.54,11111222 
TABS,ioos:station:wmo:42047:1,2010-09-04T17:00:00Z,27.8966,-93.5973,1015.58,11111222 
TABS,ioos:station:wmo:42047:1,2010-09-04T17:30:00Z,27.8966,-93.5973,1015.54,11111222 
TABS,ioos:station:wmo:42047:1,2010-09-04T18:00:00Z,27.8966,-93.5973,1015.22,11111222 
TABS,ioos:station:wmo:42047:1,2010-09-04T18:30:00Z,27.8966,-93.5973,1015.26,11111222 
TABS,ioos:station:wmo:42047:1,2010-09-04T19:00:00Z,27.8966,-93.5973,1014.8,11111222 
TABS,ioos:station:wmo:42047:1,2010-09-04T19:30:00Z,27.8966,-93.5973,1014.57,11111222 
TABS,ioos:station:wmo:42047:1,2010-09-04T20:00:00Z,27.8966,-93.5973,1014.35,11111222 
TABS,ioos:station:wmo:42047:1,2010-09-04T20:30:00Z,27.8966,-93.5973,1014.05,11111222 
TABS,ioos:station:wmo:42047:1,2010-09-04T21:00:00Z,27.8966,-93.5973,1013.6,11111222 
TABS,ioos:station:wmo:42047:1,2010-09-04T21:30:00Z,27.8966,-93.5973,1013.27,11111222 
TABS,ioos:station:wmo:42047:1,2010-09-04T22:00:00Z,27.8966,-93.5973,1013.24,11111222 
TABS,ioos:station:wmo:42047:1,2010-09-04T22:30:00Z,27.8966,-93.5973,1013.36,11111222 
TABS,ioos:station:wmo:42047:1,2010-09-04T23:00:00Z,27.8966,-93.5973,1013.26,11111222 
TABS,ioos:station:wmo:42047:1,2010-09-04T23:30:00Z,27.8966,-93.5973,1013.18,11111222 
TABS,ioos:station:wmo:42047:1,2010-09-05T00:00:00Z,27.8966,-93.5973,1013.2,11111222 
TABS,ioos:station:wmo:42047:1,2010-09-05T00:30:00Z,27.8966,-93.5973,1013.13,11111222 
TABS,ioos:station:wmo:42047:1,2010-09-05T01:00:00Z,27.8966,-93.5973,1013.25,11111222 
TABS,ioos:station:wmo:42047:1,2010-09-05T01:30:00Z,27.8966,-93.5973,1013.31,11111222 
TABS,ioos:station:wmo:42047:1,2010-09-05T02:00:00Z,27.8966,-93.5973,1013.62,11111222 
TABS,ioos:station:wmo:42047:1,2010-09-05T02:30:00Z,27.8966,-93.5973,1013.86,11111222 
TABS,ioos:station:wmo:42047:1,2010-09-05T03:00:00Z,27.8966,-93.5973,1014.09,11111222 
TABS,ioos:station:wmo:42047:1,2010-09-05T03:30:00Z,27.8966,-93.5973,1014.23,11111222 
TABS,ioos:station:wmo:42047:1,2010-09-05T04:00:00Z,27.8966,-93.5973,1014.09,11111222 
TABS,ioos:station:wmo:42047:1,2010-09-05T04:30:00Z,27.8966,-93.5973,1013.57,11111222 
TABS,ioos:station:wmo:42047:1,2010-09-05T05:00:00Z,27.8966,-93.5973,1013.24,11111222 
TABS,ioos:station:wmo:42047:1,2010-09-05T05:30:00Z,27.8966,-93.5973,1012.99,11111222 
TABS,ioos:station:wmo:42047:1,2010-09-05T06:00:00Z,27.8966,-93.5973,1012.6,11111222 
TABS,ioos:station:wmo:42047:1,2010-09-05T06:30:00Z,27.8966,-93.5973,1012.26,11111222 
TABS,ioos:station:wmo:42047:1,2010-09-05T07:00:00Z,27.8966,-93.5973,1012.09,11111222 
TABS,ioos:station:wmo:42047:1,2010-09-05T07:30:00Z,27.8966,-93.5973,1011.96,11111222 
TABS,ioos:station:wmo:42047:1,2010-09-05T08:00:00Z,27.8966,-93.5973,1012.19,11111222 
TABS,ioos:station:wmo:42047:1,2010-09-05T08:30:00Z,27.8966,-93.5973,1011.87,11111222 
TABS,ioos:station:wmo:42047:1,2010-09-05T09:00:00Z,27.8966,-93.5973,1011.79,11111222 
TABS,ioos:station:wmo:42047:1,2010-09-05T09:30:00Z,27.8966,-93.5973,1011.63,11111222 
TABS,ioos:station:wmo:42047:1,2010-09-05T10:00:00Z,27.8966,-93.5973,1011.54,11111222 
TABS,ioos:station:wmo:42047:1,2010-09-05T10:30:00Z,27.8966,-93.5973,1011.65,11111222 
TABS,ioos:station:wmo:42047:1,2010-09-05T11:00:00Z,27.8966,-93.5973,1011.71,11111222 
TABS,ioos:station:wmo:42047:1,2010-09-05T11:30:00Z,27.8966,-93.5973,1011.53,11111222 
TABS,ioos:station:wmo:42047:1,2010-09-05T12:00:00Z,27.8966,-93.5973,1011.88,11111222 
TABS,ioos:station:wmo:42047:1,2010-09-05T12:30:00Z,27.8966,-93.5973,1012.03,11111222 
TABS,ioos:station:wmo:42047:1,2010-09-05T13:00:00Z,27.8966,-93.5973,1012.15,11111222 
TABS,ioos:station:wmo:42047:1,2010-09-05T13:30:00Z,27.8966,-93.5973,1012.35,11111222 
TABS,ioos:station:wmo:42047:1,2010-09-05T14:00:00Z,27.8966,-93.5973,1012.36,11111222 
TABS,ioos:station:wmo:42047:1,2010-09-05T14:30:00Z,27.8966,-93.5973,1012.37,11111222 
TABS,ioos:station:wmo:42047:1,2010-09-05T15:00:00Z,27.8966,-93.5973,1012.67,11111222 
TABS,ioos:station:wmo:42047:1,2010-09-05T15:30:00Z,27.8966,-93.5973,1012.79,11111222 
TABS,ioos:station:wmo:42047:1,2010-09-05T16:00:00Z,27.8966,-93.5973,1012.89,11111222 
TABS,ioos:station:wmo:42047:1,2010-09-05T16:30:00Z,27.8966,-93.5973,1013.14,11111222 
TABS,ioos:station:wmo:42047:1,2010-09-05T17:00:00Z,27.8966,-93.5973,1012.2,11111222 
TABS,ioos:station:wmo:42047:1,2010-09-05T17:30:00Z,27.8966,-93.5973,1011.65,11111222 
TABS,ioos:station:wmo:42047:1,2010-09-05T18:00:00Z,27.8966,-93.5973,1011.57,11111222 
TABS,ioos:station:wmo:42047:1,2010-09-05T18:30:00Z,27.8966,-93.5973,1011.74,11111222 
TABS,ioos:station:wmo:42047:1,2010-09-05T19:00:00Z,27.8966,-93.5973,1011.74,11111222 
TABS,ioos:station:wmo:42047:1,2010-09-05T19:30:00Z,27.8966,-93.5973,1011.62,11111222 
TABS,ioos:station:wmo:42047:1,2010-09-05T20:00:00Z,27.8966,-93.5973,1010.88,11111222 
TABS,ioos:station:wmo:42047:1,2010-09-05T20:30:00Z,27.8966,-93.5973,1010.64,11111222 
TABS,ioos:station:wmo:42047:1,2010-09-05T21:00:00Z,27.8966,-93.5973,1010.47,11111222 
TABS,ioos:station:wmo:42047:1,2010-09-05T21:30:00Z,27.8966,-93.5973,1010.41,11111222 
TABS,ioos:station:wmo:42047:1,2010-09-05T22:00:00Z,27.8966,-93.5973,1010.59,11111222 
TABS,ioos:station:wmo:42047:1,2010-09-05T22:30:00Z,27.8966,-93.5973,1010.6,11111222 
TABS,ioos:station:wmo:42047:1,2010-09-05T23:00:00Z,27.8966,-93.5973,1010.4,11111222 
TABS,ioos:station:wmo:42047:1,2010-09-05T23:30:00Z,27.8966,-93.5973,1010.44,11111222 
TABS,ioos:station:wmo:42047:1,2010-09-06T00:00:00Z,27.8966,-93.5973,1010.41,11111222 
TABS,ioos:station:wmo:42047:1,2010-09-06T00:30:00Z,27.8966,-93.5973,1010.7,11111222 
TABS,ioos:station:wmo:42047:1,2010-09-06T01:00:00Z,27.8966,-93.5973,1010.72,11111222 
TABS,ioos:station:wmo:42047:1,2010-09-06T01:30:00Z,27.8966,-93.5973,1011.06,11111222 
TABS,ioos:station:wmo:42047:1,2010-09-06T02:00:00Z,27.8966,-93.5973,1011.22,11111222 
TABS,ioos:station:wmo:42047:1,2010-09-06T02:30:00Z,27.8966,-93.5973,1011.71,11111222 
TABS,ioos:station:wmo:42047:1,2010-09-06T03:00:00Z,27.8966,-93.5973,1011.55,11111222 
TABS,ioos:station:wmo:42047:1,2010-09-06T03:30:00Z,27.8966,-93.5973,1011.83,11111222 
TABS,ioos:station:wmo:42047:1,2010-09-06T04:00:00Z,27.8966,-93.5973,1011.51,11111222 
TABS,ioos:station:wmo:42047:1,2010-09-06T04:30:00Z,27.8966,-93.5973,1011.78,11111222 
TABS,ioos:station:wmo:42047:1,2010-09-06T05:00:00Z,27.8966,-93.5973,1011.61,11111222 
TABS,ioos:station:wmo:42047:1,2010-09-06T05:30:00Z,27.8966,-93.5973,1011.5,11111222 
TABS,ioos:station:wmo:42047:1,2010-09-06T06:00:00Z,27.8966,-93.5973,1011.21,11111222 
TABS,ioos:station:wmo:42047:1,2010-09-06T06:30:00Z,27.8966,-93.5973,1011.07,11111222 
TABS,ioos:station:wmo:42047:1,2010-09-06T07:00:00Z,27.8966,-93.5973,1010.75,11111222 
TABS,ioos:station:wmo:42047:1,2010-09-06T07:30:00Z,27.8966,-93.5973,1010.41,11111222 
TABS,ioos:station:wmo:42047:1,2010-09-06T08:00:00Z,27.8966,-93.5973,1010.22,11111222 
TABS,ioos:station:wmo:42047:1,2010-09-06T08:30:00Z,27.8966,-93.5973,1010.04,11111222 
TABS,ioos:station:wmo:42047:1,2010-09-06T09:00:00Z,27.8966,-93.5973,1010.15,11111222 
TABS,ioos:station:wmo:42047:1,2010-09-06T09:30:00Z,27.8966,-93.5973,1009.88,11111222 
TABS,ioos:station:wmo:42047:1,2010-09-06T10:00:00Z,27.8966,-93.5973,1010.0,11111222 
TABS,ioos:station:wmo:42047:1,2010-09-06T10:30:00Z,27.8966,-93.5973,1009.88,11111222 
TABS,ioos:station:wmo:42047:1,2010-09-06T11:00:00Z,27.8966,-93.5973,1010.18,11111222 
TABS,ioos:station:wmo:42047:1,2010-09-06T11:30:00Z,27.8966,-93.5973,1010.51,11111222 
TABS,ioos:station:wmo:42047:1,2010-09-06T12:00:00Z,27.8966,-93.5973,1010.51,11111222 
TABS,ioos:station:wmo:42047:1,2010-09-06T12:30:00Z,27.8966,-93.5973,1011.33,11111222 
TABS,ioos:station:wmo:42047:1,2010-09-06T13:00:00Z,27.8966,-93.5973,1011.5,11111222 
TABS,ioos:station:wmo:42047:1,2010-09-06T13:30:00Z,27.8966,-93.5973,1011.81,11111222 
TABS,ioos:station:wmo:42047:1,2010-09-06T14:00:00Z,27.8966,-93.5973,1011.92,11111222 
TABS,ioos:station:wmo:42047:1,2010-09-06T14:30:00Z,27.8966,-93.5973,1011.86,11111222 
TABS,ioos:station:wmo:42047:1,2010-09-06T15:00:00Z,27.8966,-93.5973,1012.82,11111222 
TABS,ioos:station:wmo:42047:1,2010-09-06T15:30:00Z,27.8966,-93.5973,1013.22,11111222 
TABS,ioos:station:wmo:42047:1,2010-09-06T16:00:00Z,27.8966,-93.5973,1013.55,11111222 
TABS,ioos:station:wmo:42047:1,2010-09-06T16:30:00Z,27.8966,-93.5973,1013.35,11111222 
TABS,ioos:station:wmo:42047:1,2010-09-06T17:00:00Z,27.8966,-93.5973,1013.47,11111222 
TABS,ioos:station:wmo:42047:1,2010-09-06T17:30:00Z,27.8966,-93.5973,1013.15,11111222 
TABS,ioos:station:wmo:42047:1,2010-09-06T18:00:00Z,27.8966,-93.5973,1012.72,11111222 
TABS,ioos:station:wmo:42047:1,2010-09-06T18:30:00Z,27.8966,-93.5973,1012.74,11111222 